Temp
8 8 8 8 8 8 8 8 9 9 10 10 11 12 11 11 11 11 12 13 13 14 14 14 15 15 16 17 18 18 18 18 19 21 22 20 21 20 20 20 20 19 18 17 18
7 8 8 8 8 8 8 8 8 9 9 10 10 11 11 11 11 11 12 12 13 14 14 13 15 16 16 18 18 18 17 19 21 22 22 22 21 21 19 19 20 18 18 17 18
7 7 7 7 8 8 8 8 8 8 8 9 9 10 10 11 10 10 12 12 13 13 13 13 14 15 16 17 18 18 17 19 21 22 21 20 20 21 20 19 21 21 19 18 18
7 7 7 7 7 8 8 7 8 8 8 8 9 9 10 11 11 13 12 13 13 13 13 13 14 15 16 16 18 17 19 19 20 20 19 18 19 19 20 20 21 20 19 19 18
6 7 7 7 7 7 8 7 8 8 8 8 8 9 9 9 11 12 12 11 11 12 12 12 14 15 15 17 18 17 19 18 19 20 19 18 18 18 19 19 19 20 20 18 18
6 6 7 7 7 7 7 7 7 7 7 7 8 8 8 9 11 11 11 12 11 10 11 12 13 14 15 16 17 17 17 17 18 19 18 18 18 18 18 19 19 19 19 19 18
6 6 6 7 7 7 7 7 7 7 7 7 7 8 7 9 10 11 10 12 11 10 11 12 12 13 14 15 13 15 14 15 17 18 18 18 16 16 17 18 19 18 18 19 19
5 5 6 6 7 7 7 7 7 7 7 7 7 7 7 9 9 10 10 10 10 10 10 11 11 11 11 11 12 12 13 13 16 17 18 17 14 17 19 19 18 18 18 18 19
4 5 5 5 6 7 7 7 7 7 7 6 6 6 8 9 9 10 10 10 10 9 10 10 10 10 9 10 10 11 12 13 14 17 18 16 15 17 18 19 19 20 19 19 19
4 4 5 5 5 6 6 6 6 6 5 6 6 6 7 8 8 8 9 10 9 9 9 9 9 10 10 10 11 11 10 12 13 16 16 16 15 16 18 18 18 19 19 19 19
3 4 4 5 5 6 6 6 5 5 5 6 6 7 10 9 9 8 9 9 8 8 9 9 9 10 11 11 12 11 11 12 15 15 15 15 14 16 17 18 18 18 19 19 19
3 3 4 4 5 5 5 6 5 5 5 6 7 7 8 9 9 8 9 8 8 9 9 9 9 11 13 11 11 11 10 11 13 14 13 13 14 15 16 17 18 18 18 18 19
3 3 3 3 4 4 5 6 5 6 5 5 6 7 8 9 9 8 9 9 10 9 9 9 11 12 12 12 11 11 10 10 12 12 13 14 13 14 16 17 18 18 19 18 19
2 3 3 3 3 4 4 5 5 6 5 5 5 7 7 8 8 9 9 9 9 9 10 9 11 12 12 11 12 11 12 12 12 11 10 13 11 12 15 16 17 18 18 18 18
2 2 2 2 2 3 4 5 5 5 6 4 6 7 7 8 9 9 9 8 9 10 10 10 10 10 10 11 12 12 13 12 12 11 10 11 10 13 16 15 16 18 20 18 18
2 2 2 2 2 4 4 4 4 4 6 5 5 6 6 8 9 8 9 8 9 10 9 10 12 12 11 12 12 12 10 10 10 9 10 10 11 12 13 15 17 18 20 20 19
2 2 2 2 2 3 3 3 4 5 2 4 5 6 7 7 8 8 7 7 8 7 8 10 10 11 12 11 11 11 10 9 9 9 9 12 11 11 14 15 16 16 18 19 20
2 1 2 2 2 3 3 2 5 4 5 4 7 6 6 7 7 7 7 6 8 9 9 8 8 10 12 11 11 10 10 9 9 10 10 10 11 13 15 16 17 18 18 19 19
1 1 1 2 2 2 2 3 4 6 4 4 6 6 6 7 7 8 7 7 8 9 8 8 9 12 12 11 11 11 8 11 9 8 8 10 11 13 14 15 16 17 18 18 19
1 -0 1 1 2 2 2 4 3 6 7 6 5 6 6 5 7 7 7 9 8 9 11 11 9 11 12 12 11 11 10 8 8 9 8 9 10 12 14 15 17 16 17 19 19
1 1 1 2 1 2 2 3 2 6 8 6 7 6 7 6 8 6 8 10 9 9 10 10 9 10 11 10 10 10 9 10 9 7 9 9 10 15 15 16 15 15 18 18 18
0 1 1 1 1 0 2 2 2 3 8 8 8 8 7 7 7 7 7 9 10 10 8 9 8 6 8 10 11 11 10 10 8 8 9 9 10 14 15 16 16 17 18 18 17
-0 1 1 1 1 2 1 2 2 3 7 8 7 8 9 8 7 8 8 11 11 10 9 9 6 5 6 8 9 8 9 10 10 9 8 9 10 14 13 14 16 16 17 18 17
-0 1 1 1 1 1 2 3 3 4 8 8 8 9 8 8 8 8 9 9 10 10 11 10 8 7 7 9 9 8 8 9 9 8 8 8 9 11 12 13 14 15 14 14 15
-0 0 1 1 1 2 2 3 3 3 5 8 7 8 8 6 7 7 8 8 8 9 9 8 4 7 8 9 9 9 9 7 8 8 8 9 10 11 12 10 9 10 12 13 14
0 1 0 1 2 1 2 4 4 3 5 6 7 8 8 7 7 7 8 8 7 8 7 7 4 6 3 6 7 7 8 8 8 7 6 7 7 10 11 11 10 12 13 14 14
2 1 3 2 2 2 4 3 5 5 6 8 8 8 7 8 9 9 10 9 8 7 7 6 4 4 4 6 6 5 6 8 8 9 9 8 10 11 11 11 12 13 13 13 13
Height
1482 1485 1489 1491 1494 1496 1499 1502 1504 1508 1512 1516 1520 1523 1525 1528 1529 1531 1531 1536 1538 1539 1541 1543 1544 1545 1546 1546 1546 1545 1546 1546 1540 1537 1534 1536 1537 1541 1542 1541 1542 1544 1546 1547 1545
1477 1480 1484 1488 1490 1493 1496 1499 1501 1504 1509 1513 1517 1520 1523 1526 1528 1526 1529 1531 1534 1537 1541 1543 1544 1545 1546 1544 1545 1545 1544 1539 1533 1530 1531 1532 1534 1537 1542 1542 1541 1542 1544 1545 1543
1472 1476 1479 1483 1487 1489 1493 1496 1499 1502 1506 1510 1514 1517 1521 1525 1526 1519 1524 1527 1531 1536 1538 1541 1543 1544 1544 1543 1542 1542 1542 1536 1532 1531 1531 1533 1536 1537 1538 1542 1540 1539 1538 1541 1539
1466 1471 1474 1478 1482 1486 1490 1494 1497 1500 1503 1507 1512 1516 1519 1523 1525 1515 1519 1524 1528 1532 1536 1539 1543 1543 1542 1541 1540 1541 1538 1537 1534 1532 1532 1535 1535 1535 1537 1538 1539 1540 1539 1538 1538
1460 1464 1469 1473 1477 1482 1486 1491 1494 1498 1501 1505 1510 1515 1517 1517 1513 1515 1517 1520 1523 1528 1532 1536 1539 1542 1540 1539 1539 1535 1535 1536 1534 1533 1532 1533 1535 1536 1534 1534 1536 1539 1538 1538 1537
1453 1458 1463 1468 1473 1477 1483 1488 1492 1496 1499 1503 1507 1512 1514 1510 1514 1515 1517 1520 1522 1526 1529 1534 1536 1538 1539 1537 1537 1535 1534 1533 1534 1532 1532 1532 1532 1535 1533 1533 1534 1536 1536 1536 1537
1447 1451 1457 1462 1468 1473 1478 1484 1489 1493 1497 1501 1505 1508 1509 1503 1510 1513 1515 1519 1521 1525 1528 1530 1533 1536 1536 1537 1536 1537 1537 1534 1532 1531 1530 1533 1530 1526 1529 1530 1529 1532 1533 1533 1534
1440 1446 1450 1456 1462 1469 1474 1480 1485 1491 1495 1498 1503 1506 1501 1504 1507 1509 1513 1517 1519 1522 1526 1529 1531 1534 1535 1539 1540 1541 1540 1537 1528 1529 1527 1532 1527 1521 1522 1524 1523 1524 1527 1527 1528
1433 1439 1445 1451 1457 1464 1470 1476 1482 1488 1492 1496 1500 1503 1502 1501 1502 1507 1511 1515 1519 1521 1523 1527 1531 1534 1536 1539 1543 1539 1538 1535 1530 1526 1522 1523 1521 1517 1517 1519 1518 1517 1518 1520 1520
1426 1433 1439 1446 1453 1459 1466 1473 1479 1485 1489 1495 1498 1504 1496 1495 1501 1506 1510 1514 1518 1520 1524 1526 1528 1529 1531 1534 1531 1534 1539 1534 1530 1523 1521 1519 1513 1514 1514 1515 1513 1512 1512 1513 1514
1418 1425 1433 1441 1448 1455 1464 1468 1475 1480 1480 1478 1481 1485 1486 1494 1500 1501 1507 1512 1515 1518 1518 1522 1524 1521 1520 1526 1527 1533 1534 1530 1522 1520 1522 1516 1512 1509 1510 1507 1505 1507 1506 1506 1507
1411 1418 1426 1434 1442 1451 1457 1454 1460 1467 1474 1479 1482 1485 1488 1492 1496 1498 1506 1510 1512 1512 1516 1523 1519 1510 1519 1523 1525 1531 1532 1529 1524 1520 1521 1517 1507 1505 1503 1499 1498 1497 1497 1497 1498
1404 1411 1420 1429 1439 1446 1448 1452 1460 1465 1472 1475 1478 1481 1486 1490 1490 1494 1498 1503 1505 1510 1511 1513 1505 1516 1518 1520 1522 1523 1528 1531 1527 1522 1519 1516 1505 1502 1492 1493 1491 1488 1487 1488 1489
1396 1405 1414 1425 1437 1436 1441 1447 1455 1464 1468 1467 1474 1477 1482 1487 1491 1490 1492 1499 1504 1503 1508 1512 1506 1511 1513 1515 1518 1520 1517 1520 1519 1525 1529 1518 1511 1497 1488 1479 1477 1474 1476 1477 1480
1390 1398 1407 1416 1422 1428 1435 1444 1449 1460 1441 1459 1465 1471 1474 1479 1480 1486 1489 1495 1495 1497 1504 1500 1501 1507 1511 1508 1511 1510 1512 1515 1514 1518 1525 1517 1523 1480 1480 1476 1467 1470 1467 1469 1471
1383 1392 1401 1411 1419 1424 1433 1441 1450 1442 1431 1441 1446 1457 1467 1471 1479 1482 1486 1492 1494 1498 1499 1497 1497 1498 1500 1503 1507 1509 1512 1514 1516 1521 1518 1508 1512 1486 1483 1469 1464 1464 1463 1463 1463
1378 1386 1396 1404 1404 1421 1428 1440 1432 1417 1430 1431 1432 1439 1449 1463 1476 1480 1481 1486 1487 1498 1497 1492 1495 1496 1497 1501 1500 1505 1513 1520 1519 1517 1508 1488 1506 1485 1466 1461 1459 1457 1459 1459 1456
1373 1382 1390 1397 1409 1417 1426 1430 1406 1417 1421 1432 1433 1442 1447 1457 1469 1472 1476 1484 1481 1481 1487 1496 1499 1489 1488 1495 1496 1500 1507 1511 1511 1505 1501 1485 1491 1468 1457 1453 1452 1453 1452 1453 1453
1373 1380 1387 1394 1404 1413 1419 1411 1400 1400 1410 1422 1430 1440 1447 1455 1457 1466 1467 1471 1472 1475 1483 1488 1487 1478 1484 1488 1495 1496 1506 1502 1510 1507 1511 1491 1480 1460 1451 1447 1448 1448 1449 1448 1447
1367 1376 1380 1390 1400 1409 1406 1404 1404 1398 1400 1416 1427 1430 1437 1443 1449 1457 1464 1460 1467 1469 1472 1472 1481 1474 1476 1484 1488 1490 1497 1506 1507 1504 1502 1489 1483 1470 1449 1445 1445 1445 1443 1440 1442
1367 1371 1373 1386 1397 1400 1397 1403 1404 1401 1398 1411 1413 1429 1428 1433 1435 1447 1450 1451 1458 1465 1472 1474 1478 1478 1475 1478 1482 1491 1493 1494 1497 1500 1491 1489 1474 1447 1446 1442 1442 1442 1442 1439 1440
1364 1364 1363 1379 1389 1389 1395 1396 1404 1402 1393 1398 1405 1414 1421 1428 1436 1445 1447 1449 1450 1457 1464 1472 1478 1485 1480 1475 1476 1480 1482 1486 1496 1487 1483 1481 1471 1448 1444 1439 1441 1441 1441 1441 1441
1360 1355 1364 1372 1378 1381 1389 1395 1394 1401 1389 1390 1399 1406 1413 1426 1439 1440 1444 1446 1447 1455 1461 1469 1479 1489 1487 1482 1474 1479 1479 1482 1482 1481 1482 1485 1464 1441 1443 1442 1442 1441 1439 1439 1439
1357 1351 1362 1371 1378 1380 1379 1388 1399 1397 1385 1388 1394 1403 1413 1423 1426 1435 1440 1443 1447 1452 1457 1461 1466 1469 1469 1464 1467 1474 1473 1474 1478 1481 1471 1474 1465 1436 1447 1448 1445 1440 1439 1439 1438
1347 1346 1352 1362 1376 1376 1378 1378 1388 1388 1388 1388 1398 1402 1408 1422 1426 1432 1436 1443 1448 1452 1455 1460 1475 1465 1461 1463 1465 1463 1466 1473 1472 1468 1474 1459 1461 1432 1442 1447 1446 1446 1439 1433 1429
1348 1347 1353 1358 1364 1374 1375 1376 1380 1383 1380 1385 1391 1398 1403 1406 1412 1425 1430 1438 1443 1450 1454 1458 1471 1468 1478 1469 1469 1468 1464 1463 1463 1465 1472 1465 1462 1430 1439 1444 1447 1442 1436 1428 1428
1344 1348 1352 1357 1364 1369 1367 1371 1373 1380 1380 1382 1383 1395 1402 1407 1414 1423 1426 1435 1438 1443 1450 1458 1469 1475 1478 1468 1468 1474 1456 1457 1454 1453 1454 1454 1440 1425 1428 1441 1437 1427 1430 1428 1424
Wind_Speed
30 27 24 22 19 19 19 20 27 29 28 26 26 26 20 19 17 17 17 18 13 18 15 11 9 7 7 7 6 6 3 6 11 9 6 12 5 4 4 4 4 4 3 6 10
31 31 28 25 22 20 19 18 19 28 27 27 24 25 25 19 17 22 22 19 21 20 12 8 10 8 8 10 7 5 4 8 12 11 6 8 11 9 3 8 8 8 12 10 10
30 29 31 28 25 22 20 20 17 20 23 26 24 21 22 22 18 24 22 26 24 19 16 9 10 8 12 16 12 5 8 12 14 15 11 11 11 7 6 7 9 11 20 18 15
37 32 28 30 28 25 23 21 20 17 22 19 23 21 18 18 9 8 12 16 20 20 16 9 10 12 7 8 17 13 17 18 19 22 7 9 13 13 15 17 17 14 1 15 14
37 36 31 27 29 28 24 23 21 19 19 18 21 20 18 18 27 2 3 8 16 20 18 14 15 15 13 10 18 15 15 17 22 17 14 8 14 11 19 20 17 16 15 13 15
34 36 35 31 27 29 26 24 21 20 19 20 18 20 21 21 22 19 19 7 13 16 17 16 12 17 12 14 16 10 13 12 22 20 13 11 15 17 14 11 11 18 19 16 19
38 34 35 33 30 28 28 25 23 21 19 20 18 21 23 26 13 18 18 15 10 15 14 16 16 10 4 5 7 8 8 10 17 16 8 9 11 12 23 24 19 18 21 18 20
36 35 34 33 31 28 29 26 24 21 18 19 18 19 15 24 14 17 21 17 12 16 17 17 19 10 4 1 4 2 7 11 7 17 14 9 16 9 18 23 28 26 28 28 26
36 34 37 30 33 31 28 28 24 21 18 18 18 16 12 18 24 22 19 18 18 11 14 11 13 8 5 3 2 5 11 13 15 20 9 14 10 11 11 23 26 24 24 28 31
38 37 33 34 30 31 28 28 23 19 18 15 15 10 16 20 14 22 17 17 15 14 9 12 7 6 6 7 12 5 5 11 15 9 9 17 19 12 19 24 25 24 26 28 31
36 37 35 33 31 30 29 28 18 11 28 17 17 19 1 19 18 19 22 19 16 13 9 10 6 11 16 15 6 5 10 16 14 17 15 14 15 15 24 26 27 29 29 29 30
37 37 35 35 31 31 30 30 34 8 12 29 10 34 16 18 14 20 26 18 15 13 11 6 15 22 9 9 14 13 14 17 14 10 11 11 18 13 21 26 28 27 31 33 34
39 38 35 34 33 31 34 40 34 14 6 20 20 21 21 18 21 22 29 26 15 14 15 15 14 14 14 14 13 13 16 15 13 10 14 15 21 17 24 30 32 35 35 36 36
38 39 36 32 30 36 38 33 30 23 5 8 15 13 22 13 9 19 30 19 10 17 17 13 23 17 11 18 14 17 15 12 10 5 7 3 9 14 12 15 20 36 39 43 38
37 37 38 37 31 39 35 42 37 25 11 17 16 13 22 22 13 17 27 28 16 12 12 12 11 13 16 20 11 19 6 14 11 11 7 19 9 15 5 14 16 14 24 39 40
34 37 34 37 37 33 36 28 25 7 12 13 18 22 20 23 11 15 22 15 15 14 13 16 14 8 16 13 13 4 2 4 3 4 9 19 13 15 15 20 18 19 29 29 33
30 34 36 38 46 31 35 23 9 11 2 5 19 24 28 15 14 15 16 14 10 10 17 19 18 11 12 8 9 15 5 3 4 4 8 21 11 21 15 13 12 10 25 28 30
24 31 35 39 37 37 33 11 17 10 8 4 14 24 21 22 14 16 15 14 16 13 7 12 9 21 14 13 8 8 12 7 5 7 6 7 7 12 17 27 39 34 30 29 30
24 31 32 39 39 39 30 15 8 9 13 12 18 27 9 20 12 15 17 16 17 16 10 11 15 5 13 15 11 8 10 13 14 11 5 3 6 10 12 9 9 13 16 21 28
24 24 31 37 37 40 14 15 8 8 16 20 14 17 16 25 14 18 17 16 13 21 16 3 4 10 10 17 17 18 8 4 5 8 9 8 7 9 6 7 7 9 22 29 27
26 14 32 40 38 29 11 11 5 15 25 18 15 15 14 20 19 20 16 6 23 16 21 3 2 1 3 11 15 11 15 13 4 3 2 3 5 5 10 8 5 6 17 17 13
19 5 37 43 12 5 13 6 10 12 25 7 10 8 17 23 19 15 13 13 25 19 23 15 1 6 11 7 5 13 15 19 10 18 7 6 13 8 17 23 17 15 10 10 10
11 4 38 46 11 5 6 5 1 15 16 7 8 7 13 18 11 10 16 16 20 16 13 12 5 2 1 4 6 6 11 11 13 15 18 13 12 3 7 11 21 20 13 7 9
7 4 12 25 18 5 11 13 6 29 10 5 13 14 18 21 6 12 16 9 16 11 14 20 4 10 12 3 6 8 15 12 12 10 17 12 26 34 23 22 24 27 28 28 25
6 2 7 8 10 6 6 19 13 9 2 15 9 21 20 11 5 10 9 6 12 9 7 6 6 11 14 11 10 14 7 10 11 15 14 22 20 31 17 9 21 34 42 41 42
8 3 4 9 25 14 12 16 21 3 11 11 16 20 15 16 8 16 11 11 8 11 6 3 1 2 4 4 9 13 14 14 12 13 9 16 20 31 31 28 25 29 35 36 36
10 11 9 11 11 12 14 10 19 11 5 7 24 19 8 13 10 15 19 16 9 11 12 9 4 4 3 3 4 8 18 16 16 18 16 18 26 29 24 8 19 29 25 25 31
Wind_Direction
241 238 239 241 241 236 238 238 233 230 229 228 231 230 236 242 248 249 249 250 238 256 262 299 311 293 281 269 262 279 257 248 260 271 271 131 156 166 241 180 181 196 201 149 202
239 239 237 237 240 237 235 233 239 229 230 228 229 230 231 239 249 253 243 241 243 255 271 285 292 281 269 258 241 235 239 238 265 289 310 201 186 161 189 225 216 208 229 192 209
241 238 235 233 236 236 233 227 235 231 230 228 226 227 229 233 254 259 250 241 242 252 264 253 273 282 266 260 223 247 245 276 276 283 338 340 328 240 195 268 233 228 223 206 213
240 240 237 233 231 233 233 230 230 234 226 228 223 222 223 214 223 241 244 250 249 244 246 236 248 247 248 245 244 265 259 280 278 288 357 329 310 310 240 240 267 305 167 209 224
238 237 236 235 232 231 230 229 227 224 225 222 218 216 211 218 220 168 76 207 220 220 229 217 229 242 247 258 252 247 259 267 276 266 291 288 284 269 287 280 287 286 264 224 237
237 237 234 232 230 229 228 227 226 227 222 218 214 212 214 236 233 242 253 260 211 204 215 207 221 238 286 271 261 297 314 281 273 275 258 272 260 266 256 262 282 267 252 242 233
234 234 233 229 227 225 223 223 222 223 221 213 210 211 221 226 235 223 233 221 208 200 201 191 211 198 206 292 334 312 306 276 258 259 243 296 282 252 259 260 262 255 267 249 247
231 229 229 228 225 224 220 218 217 219 218 209 210 211 232 235 213 202 226 223 219 215 217 219 215 203 177 359 317 289 281 266 235 251 248 192 255 277 285 249 246 249 253 257 255
227 229 228 226 220 219 219 214 210 212 214 203 209 209 227 223 218 208 206 210 215 209 213 218 222 202 142 179 223 209 255 250 256 258 254 201 258 240 273 264 261 260 252 253 251
226 226 223 223 220 215 215 208 203 204 199 196 208 203 236 220 213 208 208 220 203 196 165 192 188 196 192 192 227 212 226 239 256 260 256 258 257 254 249 268 276 263 257 256 254
226 223 224 223 219 212 209 198 178 194 192 188 190 203 288 210 201 208 196 201 197 191 202 202 220 211 214 213 230 266 255 254 244 235 246 249 263 260 267 258 250 254 258 256 257
226 225 222 220 214 210 207 198 188 201 186 203 204 209 226 206 185 206 195 195 200 211 195 192 214 230 226 200 224 233 251 259 269 296 303 285 267 260 257 261 251 249 252 254 254
225 224 222 217 213 210 213 212 187 174 167 197 209 204 205 185 203 199 194 200 203 211 200 217 234 220 237 242 234 228 227 247 265 307 290 286 267 265 257 260 257 255 252 253 253
217 216 216 208 208 209 216 215 191 174 199 173 192 213 193 177 227 208 203 188 220 217 212 231 246 236 211 237 231 249 235 247 261 257 263 292 283 276 282 258 238 241 243 246 247
213 212 213 203 200 204 207 210 186 198 213 164 172 186 179 181 134 199 193 205 210 202 191 218 214 207 230 235 231 252 226 245 250 251 263 263 267 269 319 276 268 269 273 241 243
204 207 203 201 204 210 204 205 201 198 210 164 150 173 166 194 188 162 176 200 224 231 221 234 247 226 222 231 230 272 73 331 289 228 244 244 221 267 253 258 272 268 260 255 239
200 205 201 197 202 192 196 184 197 232 76 173 171 167 175 173 170 174 182 191 177 191 223 227 232 240 242 240 224 217 183 232 234 217 247 246 219 241 271 254 259 274 286 294 254
198 199 201 201 196 192 185 221 230 160 147 208 167 167 178 157 180 186 175 190 214 203 186 214 224 215 217 223 210 209 206 230 263 240 263 204 219 242 242 244 250 263 270 273 273
190 199 198 198 196 192 184 216 195 167 131 143 155 170 154 173 157 178 192 197 195 198 194 191 233 177 193 209 213 221 215 229 257 272 283 242 269 285 272 274 235 250 273 267 266
200 198 208 194 193 190 219 213 199 160 138 150 165 182 176 175 163 181 187 204 207 203 208 240 241 202 225 204 214 221 159 183 205 236 234 219 236 250 260 258 262 242 247 256 265
192 210 204 197 190 190 202 221 238 208 152 155 155 190 188 177 183 182 193 192 193 193 209 228 262 150 50 201 210 217 237 236 230 257 245 299 236 224 243 255 44 6 1 325 261
178 224 184 181 181 190 204 172 169 231 163 162 146 172 187 178 179 181 199 193 186 182 195 205 8 229 236 257 246 223 229 229 226 250 234 260 272 260 289 295 296 306 328 318 294
184 185 163 170 186 206 161 136 185 200 177 129 138 183 164 167 174 170 192 193 168 186 181 174 224 165 267 271 222 203 245 252 248 253 252 259 267 205 273 278 289 304 268 323 314
196 151 147 180 200 186 160 173 181 211 182 87 136 141 148 164 129 182 184 188 161 201 188 166 200 205 219 155 160 208 224 227 235 243 252 247 262 273 278 283 294 304 324 331 330
228 119 141 159 193 186 168 171 184 187 154 129 144 159 159 162 135 184 165 151 150 181 164 145 207 233 246 259 278 276 247 220 231 248 256 266 267 273 276 311 313 311 309 306 303
166 137 175 152 172 197 186 182 169 205 155 169 158 164 168 160 165 171 159 174 171 185 185 116 206 138 318 295 277 279 272 262 252 233 245 261 270 268 279 272 281 279 275 276 285
180 143 149 147 161 179 175 173 153 151 42 163 149 148 127 151 154 190 172 152 163 179 186 161 146 140 268 231 227 271 249 249 255 252 243 251 255 275 284 275 262 256 274 298 300